STARLINK-32705, 62479

Orbit data source: Space-Track

STARLINK-32705, 62479 is a payload satellite owned by SpaceX/Seattle (US) in LEO that was launched on Tue, 31 Dec 2024 UTC via an FALCON 9 launch vehicle from the Air Force Eastern Test Range (AFETR). Payload-class satellites include a variety of spacecraft equipped with specific instruments for various scientific and technological missions. These include communications satellites like Starlink; space stations such as the ISS; scientific satellites like the Hubble; Earth observation satellites from companies like Planet Labs, Umbra, and HawkEye 360; GPS; miniature CubeSats for education and research; and military/defense satellites.

Loading next visibility...
Identifier
62479, 2024-254T
Orbit
LEO
Country
Flag of USUS
Related business
Manufacturer
SpaceX/Seattle
Mission
Operational Commercial Communications
Bus & Motor
STARLINK V2M, Unknown motor
Mass
730 kg wet, ~700 kg dry
Launch date (UTC)
2024-12-31 (2 years ago)
Launch vehicle
FALCON 9
Launch site
Air Force Eastern Test Range (AFETR)
Object type
Payload
Rocket body
Debris
Shape & HBR
Box + 2 Pan, 17.7 m
Radar Cross Section
33.884 m², Large (>1 m²)

Expand to show TLE details & history
Last TLE update: 19 hours ago

TLE from 19 hours ago
0 STARLINK-32705
1 62479U 24254T   26263.56134192  .00013122  00000-0  48541-3 0  9999
2 62479  43.0032 348.2576 0001974 264.8150  95.2476 15.27587275 97383
Epoch: 2026-09-20T13:28Z
TLE epoch observation values (Epoch: 2026-09-20T13:28:19.941Z)
Latitude
-0.00007°
Longitude
146.72069°
Altitude
482.927 km
Speed
7.626 km/s
True Right ascension
23h 13m 01s
True Declination
0° 00' 00"
Sunlit
Object was in full shadow at epoch
Visualization orbit readout
Latitude
Unknown
Longitude
Unknown
Altitude
Unknown
Speed
Unknown
Apparent Right ascension
Unknown
Apparent Declination
Unknown
Sunlit
N/A
Visualization observer readout
Local Sidereal Time
01:52:27
Azimuth
Unknown
Elevation
Unknown
Doppler factor
Unknown
Orbital elements
Apogee altitude
486.327 km
Perigee altitude
483.617 km
Semi-major axis
6,863.109 km
Eccentricity
0.0002
Inclination
43.0032°
RAAN
348.2576°
Arg. of periapsis
264.815°
True anomaly
95.27013°
Mean anomaly
95.2476°
Eccentric anomaly
95.25886°
Mean motion
3.81735 °/min
Orbital period
94.31 mins
BSTAR
0.00048541
Loading maneuver chart data...
Computing Atmospheric mass density...
Loading historical data...
Loading historical data...
Loading historical data...
Loading historical data...
Loading historical data...
Loading historical data...
Loading historical data...

Documentation

Showing up to 5 results
|